Location: �perlecques
(50.8057°N, 2.1521°E)
Time: 13:06:17
(UTC+00:00)

Mayak - Pass Details

Date: 09 April 2020
Orbit: 581 x 601 km, 97.5° (Epoch: 28 May)

Event Time Altitude Azimuth Distance (km) Brightness Sun altitude
Rises 22:00:36 0° 15° (NNE) 2,825 ? -26.4°
Reaches altitude 10° 22:02:47 10° 19° (NNE) 1,917 ? -26.6°
Enters shadow 22:05:13 33° 32° (NNE) 995 ? -26.7°
